Weather History for KMRB - February, 2012

Change the Weather History Date:

Wednesday, February 1, 2012

  Actual Average Record
Temperature  
Mean Temperature 53 °F 32 °F  
Max Temperature 64 °F 41 °F 74 °F (1989)
Min Temperature 42 °F 23 °F -2 °F (1935)
Degree Days  
Heating Degree Days 12 33  
Month to date heating degree days 12 33  
Since 1 July heating degree days 2519 3116  
Cooling Degree Days 0 0  
Month to date cooling degree days 0 0  
Year to date cooling degree days 0 0  
Growing Degree Days 4 (Base 50)    
Moisture  
Dew Point 38 °F    
Average Humidity 58    
Maximum Humidity 83    
Minimum Humidity 32    
Precipitation  
Precipitation 0.00 in 0.08 in 0.90 in (2008)
Month to date precipitation 0.00 0.08  
Year to date precipitation 2.07 2.52  
Sea Level Pressure  
Sea Level Pressure 30.02 in    
Wind  
Wind Speed 8 mph (WSW)    
Max Wind Speed 23 mph    
Max Gust Speed 30 mph    
Visibility 10 miles    
Events      
T = Trace of Precipitation, MM = Missing Value Source: NWS Daily Summary

Daily Weather History Graph

Daily Weather History Graph

Search for Another Location

Airport or City:

Trip Planner

Search our weather history database for the weather conditions in past years. The results will help you decide how hot, cold, wet, or windy it might be!

Date:

Astronomy

Feb. 01, 2012 Rise Set
Actual Time 7:19 AM EST 5:31 PM EST
Civil Twilight 6:51 AM EST 6:00 PM EST
Nautical Twilight 6:19 AM EST 6:32 PM EST
Astronomical Twilight 5:47 AM EST 7:03 PM EST
Moon 11:58 AM EST (2/1) 2:03 AM EST (2/1)
Length of Visible Light 11h 08m
Length of Day
10h 12m
Waxing Gibbous, 64% of the Moon is Illuminated
Feb 1
Waxing Gibbous
Feb 7
Full
Feb 14
Last Quarter
Feb 21
New
Feb 29
First Quarter

Hourly Weather History & Observations

Time (EST) Temp. Windchill Dew Point Humidity Pressure Visibility Wind Dir Wind Speed Gust Speed Precip Events Conditions
12:53 AM 52.0 °F - 27.0 °F 38% 30.02 in 10.0 mi South 6.9 mph - N/A   Clear
1:53 AM 55.0 °F - 27.0 °F 34% 30.02 in 10.0 mi SW 5.8 mph - N/A   Clear
2:53 AM 53.6 °F - 26.6 °F 35% 30.03 in 10.0 mi SSW 3.5 mph - N/A   Mostly Cloudy
3:53 AM 55.0 °F - 28.0 °F 35% 30.02 in 10.0 mi South 6.9 mph - N/A   Scattered Clouds
4:53 AM 55.0 °F - 27.0 °F 34% 30.02 in 10.0 mi SSW 5.8 mph - N/A   Mostly Cloudy
5:53 AM 55.9 °F - 32.0 °F 40% 30.02 in 10.0 mi WSW 5.8 mph - N/A   Scattered Clouds
6:53 AM 55.4 °F - 35.6 °F 47% 30.01 in 10.0 mi SSW 3.5 mph - N/A   Scattered Clouds
7:53 AM 55.9 °F - 37.9 °F 51% 30.02 in 10.0 mi South 3.5 mph - N/A   Overcast
8:53 AM 55.0 °F - 39.0 °F 55% 30.04 in 10.0 mi Calm Calm - N/A   Mostly Cloudy
9:53 AM 57.0 °F - 37.0 °F 47% 30.03 in 10.0 mi South 3.5 mph - N/A   Overcast
10:53 AM 60.1 °F - 44.1 °F 55% 30.03 in 10.0 mi West 13.8 mph 23.0 mph N/A   Overcast
11:53 AM 60.8 °F - 44.6 °F 55% 30.02 in 10.0 mi WSW 15.0 mph 21.9 mph N/A   Mostly Cloudy
12:53 PM 62.6 °F - 44.6 °F 52% 30.00 in 10.0 mi West 17.3 mph - N/A   Mostly Cloudy
1:53 PM 62.1 °F - 44.1 °F 52% 29.99 in 10.0 mi West 13.8 mph - N/A   Mostly Cloudy
2:53 PM 63.0 °F - 42.1 °F 46% 29.99 in 10.0 mi WNW 18.4 mph - N/A   Partly Cloudy
3:53 PM 62.1 °F - 43.0 °F 50% 30.00 in 10.0 mi West 11.5 mph - N/A   Partly Cloudy
4:53 PM 59.0 °F - 43.0 °F 55% 30.01 in 10.0 mi SW 4.6 mph - N/A   Clear
5:53 PM 55.4 °F - 42.8 °F 63% 30.03 in 10.0 mi WSW 9.2 mph - N/A   Clear
6:53 PM 55.9 °F - 42.1 °F 60% 30.04 in 10.0 mi WNW 15.0 mph - N/A   Clear
7:53 PM 55.0 °F - 39.9 °F 57% 30.04 in 10.0 mi WNW 8.1 mph - N/A   Clear
8:53 PM 54.0 °F - 39.9 °F 59% 30.04 in 10.0 mi NW 5.8 mph - N/A   Clear
9:53 PM 52.0 °F - 39.9 °F 63% 30.05 in 10.0 mi Calm Calm - N/A   Clear
10:53 PM 45.0 °F - 39.0 °F 80% 30.03 in 10.0 mi Calm Calm - N/A   Clear
11:53 PM 45.0 °F 43.5 °F 39.0 °F 80% 30.03 in 10.0 mi WSW 3.5 mph - N/A   Partly Cloudy